| time (UTC) | temp C | wind direction | speed KPH | gust KPH | rain 1hr cm | rain 24hr cm | rain mn cm | humidity % | barometer mb |
| 20260507093036 | 8 | 255 | 0.0 | 0.0 | 0.00 | 0.00 | 0.00 | 1 | 1017.5 |
| 20260507091522 | 8 | 255 | 0.0 | 0.0 | 0.00 | 0.00 | 0.00 | 1 | 1017.5 |
| 20260507090028 | 8 | 255 | 0.0 | 0.0 | 0.00 | 0.00 | 0.00 | 1 | 1017.8 |
| 20260507084513 | 8 | 255 | 0.0 | 0.0 | 0.00 | 0.00 | 0.00 | 1 | 1017.8 |
| 20260507083015 | 8 | 254 | 0.0 | 1.6 | 0.00 | 0.00 | 0.00 | 1 | 1017.6 |
| 20260507081504 | 8 | 178 | 0.0 | 0.0 | 0.00 | 0.00 | 0.00 | 1 | 1017.7 |
| 20260507080135 | 8 | 178 | 0.0 | 0.0 | 0.00 | 0.00 | 0.00 | 1 | 1017.5 |
| 20260507074603 | 8 | 178 | 0.0 | 0.0 | 0.00 | 0.00 | 0.00 | 1 | 1017.4 |
| 20260507073059 | 9 | 178 | 0.0 | 0.0 | 0.00 | 0.00 | 0.00 | 1 | 1017.3 |
| 20260507071559 | 9 | 178 | 0.0 | 0.0 | 0.00 | 0.00 | 0.00 | 1 | 1017.2 |
| 20260507070042 | 10 | 178 | 0.0 | 0.0 | 0.00 | 0.00 | 0.00 | 1 | 1017.3 |
| 20260507064537 | 10 | 177 | 0.0 | 0.0 | 0.00 | 0.00 | 0.00 | 1 | 1017.2 |
| 20260507063038 | 10 | 177 | 0.0 | 0.0 | 0.00 | 0.00 | 0.00 | 1 | 1017.2 |
| 20260507061529 | 10 | 160 | 0.0 | 0.0 | 0.00 | 0.00 | 0.00 | 1 | 1017.3 |
| 20260507060024 | 10 | 163 | 0.0 | 0.0 | 0.00 | 0.00 | 0.00 | 1 | 1017.3 |
| 20260507054520 | 10 | 163 | 0.0 | 0.0 | 0.00 | 0.00 | 0.00 | 1 | 1017.4 |
| 20260507053016 | 10 | 163 | 0.0 | 0.0 | 0.00 | 0.00 | 0.00 | 1 | 1017.3 |
| 20260507051511 | 10 | 163 | 0.0 | 0.0 | 0.00 | 0.00 | 0.00 | 1 | 1017.4 |
| 20260507050008 | 10 | 163 | 0.0 | 0.0 | 0.00 | 0.00 | 0.00 | 1 | 1017.4 |
| 20260507044502 | 10 | 163 | 0.0 | 0.0 | 0.00 | 0.00 | 0.00 | 1 | 1017.5 |
| 20260507043059 | 11 | 243 | 0.0 | 1.6 | 0.00 | 0.00 | 0.00 | 1 | 1017.4 |
| 20260507041600 | 11 | 246 | 0.0 | 0.0 | 0.00 | 0.00 | 0.00 | 1 | 1017.3 |
| 20260507040058 | 11 | 126 | 0.0 | 1.6 | 0.00 | 0.00 | 0.00 | 1 | 1017.3 |
| 20260507034554 | 11 | 140 | 0.0 | 1.6 | 0.00 | 0.00 | 0.00 | 1 | 1017.2 |
| 20260507033043 | 11 | 141 | 0.0 | 0.0 | 0.00 | 0.00 | 0.00 | 1 | 1017.0 |
| 20260507031535 | 11 | 114 | 0.0 | 1.6 | 0.00 | 0.00 | 0.00 | 1 | 1016.9 |
| 20260507030032 | 11 | 82 | 0.0 | 0.0 | 0.00 | 0.00 | 0.00 | 1 | 1016.9 |
| 20260507024526 | 11 | 82 | 0.0 | 0.0 | 0.00 | 0.00 | 0.00 | 1 | 1017.0 |
| 20260507023022 | 12 | 82 | 0.0 | 0.0 | 0.00 | 0.00 | 0.00 | 1 | 1016.9 |
| 20260507021517 | 12 | 196 | 0.0 | 0.0 | 0.00 | 0.00 | 0.00 | 1 | 1017.0 |
| 20260507020013 | 12 | 196 | 0.0 | 0.0 | 0.00 | 0.00 | 0.00 | 1 | 1017.0 |
| 20260507014509 | 12 | 165 | 0.0 | 0.0 | 0.00 | 0.00 | 0.00 | 1 | 1016.9 |
| 20260507013005 | 12 | 165 | 0.0 | 0.0 | 0.00 | 0.00 | 0.00 | 5 | 1016.8 |
| 20260507011605 | 12 | 165 | 0.0 | 0.0 | 0.00 | 0.00 | 0.00 | 4 | 1016.8 |
| 20260507010056 | 12 | 166 | 0.0 | 0.0 | 0.00 | 0.00 | 0.00 | 7 | 1016.8 |
| 20260507004551 | 12 | 155 | 0.0 | 0.0 | 0.00 | 0.00 | 0.00 | 3 | 1016.8 |
| 20260507003047 | 12 | 150 | 0.0 | 0.0 | 0.00 | 0.00 | 0.00 | 8 | 1016.8 |
| 20260507001550 | 12 | 150 | 0.0 | 0.0 | 0.00 | 0.00 | 0.00 | 12 | 1016.7 |
| 20260507000040 | 12 | 149 | 0.0 | 0.0 | 0.00 | 0.00 | 0.00 | 11 | 1016.8 |
| 20260506234542 | 12 | 244 | 0.0 | 0.0 | 0.00 | 0.00 | 0.00 | 8 | 1016.7 |
| 20260506233030 | 12 | 143 | 0.0 | 0.0 | 0.00 | 0.00 | 0.00 | 7 | 1016.7 |
| 20260506231526 | 12 | 144 | 0.0 | 0.0 | 0.00 | 0.00 | 0.00 | 6 | 1016.8 |
| 20260506230020 | 12 | 150 | 0.0 | 0.0 | 0.00 | 0.00 | 0.00 | 7 | 1016.8 |
| 20260506224524 | 12 | 41 | 0.0 | 1.6 | 0.00 | 0.00 | 0.00 | 17 | 1017.0 |
| 20260506223012 | 12 | 259 | 0.0 | 1.6 | 0.00 | 0.00 | 0.00 | 18 | 1016.9 |
| 20260506221507 | 12 | 255 | 0.0 | 1.6 | 0.00 | 0.00 | 0.00 | 21 | 1016.9 |
| 20260506220002 | 12 | 257 | 0.0 | 1.6 | 0.00 | 0.00 | 0.00 | 30 | 1017.0 |
| 20260506214558 | 12 | 112 | 0.0 | 1.6 | 0.00 | 0.00 | 0.00 | 31 | 1016.9 |
| 20260506213101 | 12 | 128 | 0.0 | 1.6 | 0.00 | 0.00 | 0.00 | 36 | 1016.8 |
| 20260506211548 | 13 | 224 | 0.0 | 1.6 | 0.00 | 0.00 | 0.00 | 38 | 1016.9 |
| 20260506210048 | 13 | 147 | 0.0 | 0.0 | 0.00 | 0.00 | 0.00 | 34 | 1016.9 |
| 20260506204540 | 12 | 147 | 0.0 | 0.0 | 0.00 | 0.00 | 0.00 | 34 | 1016.9 |
| 20260506203101 | 13 | 147 | 0.0 | 0.0 | 0.00 | 0.00 | 0.00 | 31 | 1016.8 |
| 20260506201531 | 12 | 148 | 0.0 | 0.0 | 0.00 | 0.00 | 0.00 | 19 | 1016.8 |
| 20260506200031 | 12 | 185 | 0.0 | 0.0 | 0.00 | 0.00 | 0.00 | 14 | 1016.8 |
| 20260506194523 | 12 | 226 | 0.0 | 1.6 | 0.00 | 0.00 | 0.00 | 7 | 1016.8 |
| 20260506193018 | 11 | 230 | 0.0 | 1.6 | 0.00 | 0.00 | 0.00 | 3 | 1016.8 |
| 20260506191517 | 11 | 223 | 0.0 | 0.0 | 0.00 | 0.00 | 0.00 | 2 | 1016.8 |
| 20260506190009 | 11 | 65 | 0.0 | 0.0 | 0.00 | 0.00 | 0.00 | 3 | 1016.7 |
| 20260506184505 | 11 | 200 | 0.0 | 0.0 | 0.00 | 0.00 | 0.00 | 1 | 1016.5 |
| 20260506183000 | 11 | 200 | 0.0 | 0.0 | 0.00 | 0.00 | 0.00 | 1 | 1016.4 |
| 20260506181601 | 11 | 278 | 0.0 | 0.0 | 0.00 | 0.00 | 0.00 | 1 | 1016.4 |
| 20260506180054 | 11 | 278 | 0.0 | 0.0 | 0.00 | 0.00 | 0.00 | 1 | 1016.4 |
| 20260506174605 | 11 | 278 | 0.0 | 1.6 | 0.00 | 0.00 | 0.00 | 1 | 1016.3 |
| 20260506173053 | 11 | 89 | 0.0 | 3.2 | 0.00 | 0.00 | 0.00 | 1 | 1016.2 |
| 20260506171542 | 11 | 198 | 0.0 | 0.0 | 0.00 | 0.00 | 0.00 | 1 | 1016.2 |
| 20260506170036 | 11 | 198 | 0.0 | 0.0 | 0.00 | 0.00 | 0.00 | 1 | 1016.1 |
| 20260506164533 | 11 | 199 | 0.0 | 0.0 | 0.00 | 0.00 | 0.00 | 1 | 1016.0 |
| 20260506163047 | 11 | 162 | 0.0 | 1.6 | 0.00 | 0.00 | 0.00 | 1 | 1015.7 |
| 20260506161526 | 10 | 233 | 0.0 | 0.0 | 0.00 | 0.00 | 0.00 | 1 | 1015.9 |
| 20260506160020 | 10 | 206 | 0.0 | 0.0 | 0.00 | 0.00 | 0.00 | 1 | 1015.7 |
| 20260506154528 | 10 | 206 | 0.0 | 0.0 | 0.00 | 0.00 | 0.00 | 1 | 1015.9 |
| 20260506153011 | 10 | 206 | 0.0 | 1.6 | 0.00 | 0.00 | 0.00 | 1 | 1016.1 |
| 20260506151506 | 10 | 221 | 0.0 | 0.0 | 0.00 | 0.00 | 0.00 | 1 | 1015.8 |
| 20260506144556 | 10 | 221 | 0.0 | 0.0 | 0.00 | 0.00 | 0.00 | 1 | 1015.5 |
| 20260506143051 | -17 | 0.0 | 0.0 | 0.00 | 0.00 | 0.00 | 1015.1 | ||
| 20260506141548 | -17 | 0.0 | 0.0 | 0.00 | 0.00 | 0.00 | 1015.1 | ||
| 20260506140043 | -17 | 0.0 | 0.0 | 0.00 | 0.00 | 0.00 | 1015.3 | ||
| 20260506134538 | -17 | 0.0 | 0.0 | 0.00 | 0.00 | 0.00 | 1014.9 | ||
| 20260506133034 | -17 | 0.0 | 0.0 | 0.00 | 0.00 | 0.00 | 1014.8 | ||
| 20260506131535 | -17 | 0.0 | 0.0 | 0.00 | 0.00 | 0.00 | 1014.9 | ||
| 20260506130126 | -17 | 0.0 | 0.0 | 0.00 | 0.00 | 0.00 | 1014.7 | ||
| 20260506124521 | -17 | 0.0 | 0.0 | 0.00 | 0.00 | 0.00 | 1014.7 | ||
| 20260506123017 | 10 | 301 | 0.0 | 0.0 | 0.00 | 0.00 | 0.00 | 1 | 1014.5 |
| 20260506121513 | 10 | 301 | 0.0 | 0.0 | 0.00 | 0.00 | 0.00 | 1 | 1014.8 |
| 20260506120012 | 10 | 301 | 0.0 | 0.0 | 0.00 | 0.00 | 0.00 | 1 | 1014.8 |
| 20260506114504 | 10 | 301 | 0.0 | 0.0 | 0.00 | 0.00 | 0.00 | 1 | 1014.7 |
| 20260506113059 | 10 | 301 | 0.0 | 0.0 | 0.00 | 0.00 | 0.00 | 1 | 1014.5 |
| 20260506111555 | 10 | 301 | 0.0 | 0.0 | 0.00 | 0.00 | 0.00 | 1 | 1014.3 |
| 20260506110051 | 10 | 301 | 0.0 | 0.0 | 0.00 | 0.00 | 0.00 | 1 | 1014.1 |
| 20260506104548 | 10 | 281 | 0.0 | 0.0 | 0.00 | 0.00 | 0.00 | 1 | 1014.1 |
| 20260506103041 | 10 | 281 | 0.0 | 0.0 | 0.00 | 0.00 | 0.00 | 1 | 1014.0 |
| 20260506101537 | 10 | 281 | 0.0 | 1.6 | 0.00 | 0.00 | 0.00 | 1 | 1013.7 |
| 20260506100036 | 10 | 359 | 0.0 | 0.0 | 0.00 | 0.00 | 0.00 | 1 | 1013.6 |
| 20260506094527 | 10 | 127 | 0.0 | 0.0 | 0.00 | 0.00 | 0.00 | 1 | 1013.5 |